Weather in Dublyani

Ukraine / Lviv District     49°29′57″N   23°24′21″E
temp.,
°C
wind,
m/s
gust,
m/s
humid.,
%
clouds,
%
prec.,
mm/h
press.,
hPa
HPBL,
m
3 march, wed
wed323:00+3wnw48880 0.0 1033159
02:00+1w34900 0.0 103476
05:00+1w23910 0.0 103239
08:00+1w239017 0.0 103353
11:00+6wnw25782 0.0 1031464
14:00+10nw24631 0.0 1029716
17:00+8n12780 0.0 102722
20:00+5ssw23820 0.0 102622
4 march, thu
thu423:00+4sw48790 0.0 1025139
02:00+4wsw411810 0.0 1023238
05:00+5wsw5147719 0.0 1020352
08:00+5sw7147253 0.0 1019306
11:00+9wsw7125984 0.0 1017657
14:00+12wsw7105073 0.0 10151444
17:00+10wsw496568 0.0 1012469
20:00+6wsw5127684 0.0 1013322
5 march, fri
fri523:00+7wsw41181100 0.8 1012381
02:00+5nnw4796100 2.3 1011298
05:00+3n3497100 4.8 1010235
08:000nnw4798100 9.8 1012352
11:00+1nnw5898100 3.0 1014419
14:00+1n4684100 3.7 1016736
17:00+1nnw4674100 0.3 10181028
20:00−1nnw367869 0.3 1021141
6 march, sat
sat623:00−2nnw257866 0.0 1024156
02:00−2nw237752 0.0 102585
05:00−3wnw24810 0.0 1026170
08:00−2nw477513 0.0 1028609
11:000nnw565695 0.0 10301406
14:00+1nnw574597 0.2 10302007
17:000nnw454215 0.0 10311826
20:00−2wnw23578 0.0 103251
7 march, sun
sun723:00−3sw34640 0.0 103295
02:00−3wsw48630 0.0 1031244
05:00−3wsw510620 0.0 1029323
08:00−2wsw612590 0.0 1028553
11:00+2w711460 0.0 10261215
14:00+4w711420 0.0 10231397
17:00+3wsw510574 0.0 1021964
20:00−1wsw513692 0.0 1021355